Tracking 31027 objects as of 19-Jul-2025
HD Live streaming from Space Station
objects crossing your sky now

DELTA 1 DEB

Track DELTA 1 DEB now!
10-day predictions


NORAD ID: 7015
Int'l Code: 1973-086F
Perigee: 1,513.4 km
Apogee: 2,172.0 km
Inclination: 101.7 °
Period: 123.5 minutes
Semi major axis: 8213 km
RCS: 0.3794 m2 (medium)
Launch date: November 6, 1973
Source: United States (US)
Launch site: AIR FORCE WESTERN TEST RANGE (AFWTR)

Note: This is SATELLITE DEBRIS
Your satellite tracking list
GALASSIA
Track 1 satellite(s)




NASA's NSSDC Master Catalog

Two Line Element Set (TLE):
1 07015U 73086F   25199.85826990 -.00000019  00000-0  24059-3 0  9994
2 07015 101.7496  38.7169 0400880 197.0312 176.0375 11.66257683200950
Source of the keplerian elements: AFSPC